Flag for Azerbaijan Weather past 2 weeks in Sumqayit, Azerbaijan

Now
70 °F

Broken clouds.


Feels Like: 70 °F
Forecast: 58 / 62 °F
Wind: 24 mph from North

Location: Baku / Bine Airport

Current Time: Oct 2, 2014 at 12:34:08 PM

Latest Report: Oct 2, 2014 at 12:00 PM


Visibility: N/A

Pressure: 30.21 "Hg

Humidity: 69%

Dew point: 59 °F

Location of SumqayitLocation

Historic Weather in Sumqayit — Graph

°F

Sumqayit temperature yesterday

Maximum temperature yesterday: 72 °F (at 2:00 PM)
Minimum temperature yesterday: 57 °F (at 5:30 AM)
Average temperature yesterday: 64 °F

Past Weeks' High & Low Weather Summary

 TemperatureHumidityPressure
High84 °F (Sep 24, 5:00 PM)100% (Sep 29, 4:30 AM)30.24 "Hg (Sep 29, 4:30 AM)
Low57 °F (Sep 27, 6:00 AM)36% (Sep 19, 6:00 PM)29.50 "Hg (Sep 24, 2:30 PM)
Average69 °F71%29.96 "Hg
* Reported Sep 17 11:00 AM — Oct 2 11:30 AM, Sumqayit, Weather by CustomWeather, © 2014

Note: Actual official high and low records may vary slightly from our data, if they occured in-between our weather recording intervals... More about our weather records

Advertising

Sumqayit weather history for previous 24 hours

 ConditionsComfort  
Time TempWeatherWind HumidityBarometerVisibility
11:30 AM
Oct 2
68 °FBroken clouds.22 mph69%30.21 "HgN/A
11:00 AM68 °FBroken clouds.21 mph73%30.21 "HgN/A
10:30 AM68 °FBroken clouds.23 mph73%30.21 "HgN/A
10:00 AM68 °FBroken clouds.23 mph73%30.18 "HgN/A
9:30 AM66 °FBroken clouds.14 mph83%30.18 "HgN/A
9:00 AM63 °FBroken clouds.10 mph88%30.15 "HgN/A
8:30 AM61 °FPartly cloudy.6 mph94%30.15 "HgN/A
8:00 AM59 °FPassing clouds.5 mph94%30.15 "HgN/A
7:30 AM59 °FPassing clouds.No wind94%30.12 "HgN/A
7:00 AM57 °FPassing clouds.7 mph94%30.12 "HgN/A
6:30 AM57 °FClear.7 mph94%30.12 "Hg10 mi
6:00 AM57 °FPassing clouds.7 mph94%30.12 "HgN/A
5:30 AM57 °FPassing clouds.5 mph94%30.09 "HgN/A
5:00 AM57 °FPassing clouds.5 mph88%30.09 "HgN/A
4:30 AM59 °FClear.7 mph88%30.09 "Hg10 mi
4:00 AM59 °FClear.5 mph94%30.07 "Hg10 mi
3:30 AM59 °FClear.5 mph88%30.07 "Hg10 mi
3:00 AM57 °FClear.2 mph94%30.07 "Hg10 mi
2:30 AM57 °FClear.3 mph94%30.07 "Hg10 mi
2:00 AM59 °FClear.6 mph88%30.07 "Hg10 mi
1:30 AM59 °FClear.5 mph88%30.07 "Hg10 mi
1:00 AM59 °FClear.No wind88%30.07 "Hg10 mi
12:30 AM59 °FClear.2 mph88%30.07 "Hg10 mi
12:00 AM59 °FClear.No wind94%30.07 "Hg10 mi
11:30 PM
Oct 1
61 °FClear.No wind88%30.07 "Hg10 mi
11:00 PM61 °FClear.3 mph88%30.07 "Hg10 mi
10:30 PM63 °FClear.2 mph83%30.07 "Hg10 mi
10:00 PM63 °FClear.7 mph88%30.07 "Hg10 mi
9:30 PM61 °FClear.No wind88%30.07 "Hg10 mi
9:00 PM64 °FClear.2 mph78%30.07 "Hg10 mi
8:30 PM66 °FClear.No wind78%30.04 "Hg10 mi
8:00 PM66 °FSunny.6 mph78%30.04 "Hg10 mi
7:30 PM68 °FSunny.6 mph69%30.04 "Hg10 mi
7:00 PM70 °FSunny.3 mph64%30.04 "Hg10 mi
6:30 PM72 °FSunny.5 mph57%30.04 "Hg10 mi
6:00 PM72 °FSunny.3 mph57%30.04 "Hg10 mi
5:30 PM72 °FSunny.6 mph57%30.04 "Hg10 mi
5:00 PM72 °FScattered clouds.6 mph61%30.04 "HgN/A
4:30 PM72 °FScattered clouds.9 mph61%30.04 "HgN/A
4:00 PM72 °FSunny.10 mph65%30.04 "Hg10 mi
3:30 PM70 °FSunny.7 mph69%30.04 "Hg10 mi
3:00 PM72 °FSunny.6 mph65%30.04 "Hg10 mi
2:30 PM72 °FScattered clouds.7 mph57%30.07 "HgN/A
2:00 PM72 °FPassing clouds.6 mph61%30.07 "HgN/A
1:30 PM70 °FPassing clouds.7 mph60%30.07 "HgN/A
1:00 PM68 °FSunny.9 mph69%30.09 "Hg10 mi
12:30 PM68 °FSunny.9 mph69%30.09 "Hg10 mi
12:00 PM68 °FSunny.9 mph69%30.09 "Hg10 mi
Weather by CustomWeather, © 2014

See weather overviewHow to use our weather pages